Theta_e
326 325 324 324 323 321 320 319 317 315 314 314 314 315 316 316 316 316 315 313 313 313 312 312 312 311 299
314 322 322 322 320 319 317 315 314 312 309 310 310 312 314 314 313 312 311 310 309 310 310 310 309 307 300
306 312 318 319 317 316 314 313 307 298 300 301 308 310 310 310 310 309 308 306 305 305 306 306 304 299 299
306 306 305 305 302 301 300 301 297 295 296 301 306 307 306 305 306 306 304 302 299 295 295 300 296 296 297
301 300 298 298 297 297 295 296 295 296 296 294 294 294 293 296 292 294 293 293 292 293 293 293 294 294 294
296 298 296 296 294 294 294 295 293 292 292 292 291 291 290 290 289 289 290 291 291 292 292 292 291 292 292
294 295 294 294 295 294 293 294 293 292 291 291 290 289 288 288 288 288 288 289 289 290 291 291 290 290 291
294 294 295 294 294 293 291 292 293 291 290 290 289 289 288 288 287 288 287 288 288 289 289 290 289 290 290
294 294 294 294 294 292 290 290 291 290 289 288 288 287 287 287 287 287 287 287 286 288 287 288 289 290 290
294 294 294 293 293 291 289 289 290 289 289 287 287 286 287 286 286 286 285 285 285 285 285 286 287 288 289
293 293 292 291 291 291 289 288 288 288 288 287 286 286 286 286 285 286 284 284 284 284 285 286 286 287 287
292 290 289 289 289 289 288 287 287 287 287 286 285 285 286 285 284 284 283 284 284 284 286 286 285 286 286
291 290 289 289 288 286 286 287 286 286 286 285 285 284 285 284 284 283 284 283 283 283 282 283 284 285 285
293 292 290 288 285 287 286 286 286 286 285 285 284 283 283 283 283 283 283 282 282 283 281 280 279 282 285
292 289 286 285 284 283 284 284 284 284 285 284 284 283 283 283 282 282 282 282 281 281 282 281 278 277 280
291 289 287 289 286 286 286 284 283 284 284 284 283 283 282 282 281 282 283 281 281 280 281 283 281 281 278
Wind_Speed
12 13 14 15 15 14 14 14 14 13 11 10 10 10 10 10 11 11 12 12 11 12 12 13 14 14 6
5 10 12 14 15 15 15 14 13 13 11 11 7 9 10 11 11 12 12 11 11 12 13 14 13 11 6
5 5 10 14 14 14 13 10 9 5 6 6 8 10 10 11 10 11 11 11 10 11 12 12 10 3 5
6 6 6 6 5 6 6 6 5 5 5 5 6 10 10 9 9 10 10 10 8 4 3 7 3 5 4
7 4 3 3 3 4 6 6 5 4 4 4 3 3 3 6 3 5 5 4 5 4 4 4 5 4 3
5 6 5 4 4 4 5 6 4 3 4 4 3 4 4 2 3 3 2 4 5 5 5 5 5 4 3
9 6 5 5 5 5 4 5 5 5 5 4 4 4 3 3 2 2 3 3 4 5 5 5 6 6 6
10 10 7 5 5 5 5 5 6 5 5 5 5 4 3 3 2 3 3 4 4 4 5 5 6 5 5
13 10 7 7 6 6 5 6 7 6 6 6 5 4 4 4 4 3 3 3 4 4 5 5 4 5 5
14 10 8 7 7 6 5 5 8 7 7 6 5 4 4 3 3 3 3 3 4 4 4 4 5 5 6
12 10 8 8 7 6 5 5 6 7 7 6 5 5 5 4 3 2 3 2 3 4 4 5 5 5 5
10 6 4 6 5 6 6 6 7 6 7 6 5 5 5 4 3 2 3 2 2 2 4 5 5 4 4
11 10 7 10 7 5 6 8 9 7 7 7 5 6 5 5 4 3 3 3 3 4 3 4 4 4 1
13 10 6 6 3 5 6 7 8 9 7 7 7 6 6 4 4 3 3 3 2 4 3 1 5 6 4
14 9 5 5 4 3 5 5 7 7 7 7 7 6 6 5 5 4 4 5 4 1 4 3 3 2 4
16 14 13 12 9 7 8 5 5 8 8 8 8 7 6 4 6 5 4 4 5 4 2 3 2 2 3
Wind_Direction
162 160 160 158 155 153 147 138 131 126 120 114 108 101 106 94 84 76 70 55 51 44 36 31 25 22 16
157 161 162 161 160 157 152 146 141 133 121 119 101 97 98 85 80 76 70 60 49 41 35 29 22 18 7
162 167 162 163 161 161 156 151 129 137 130 113 105 96 89 85 79 75 68 61 57 45 35 28 21 6 6
173 168 160 158 153 152 157 154 148 144 139 119 91 90 81 71 72 68 59 52 44 41 20 24 12 4 356
175 165 169 161 161 166 167 164 161 148 127 115 97 86 76 59 40 47 39 40 34 32 21 11 1 359 346
159 174 175 168 169 173 180 170 151 148 135 130 122 116 94 81 82 69 51 48 40 25 27 6 359 349 337
176 171 173 179 176 174 172 176 161 159 152 140 130 124 123 121 126 91 75 55 40 17 14 9 349 339 326
180 180 182 169 167 166 174 182 177 159 152 145 137 136 134 146 143 103 78 55 36 16 4 357 335 320 315
183 180 173 176 167 174 174 176 171 164 166 146 144 149 162 165 127 120 81 69 48 14 353 334 317 308 309
182 176 175 172 168 172 168 172 177 169 156 152 146 157 157 135 138 106 66 57 37 11 337 314 304 308 304
173 170 165 164 169 176 167 172 172 168 162 143 150 158 158 140 111 107 70 80 32 352 319 307 307 303 309
158 139 138 160 170 169 175 174 171 172 165 154 153 158 150 134 129 112 116 68 52 341 309 310 300 299 308
165 166 169 187 182 178 178 177 174 175 170 161 157 154 159 154 164 156 111 91 41 340 6 336 326 324 96
174 175 170 162 174 173 177 180 180 178 174 164 160 162 162 145 144 150 149 116 82 10 72 15 354 337 331
170 144 102 87 78 133 187 184 191 177 174 167 166 159 162 148 158 177 175 142 133 68 48 120 354 300 314
168 171 171 187 182 194 184 175 176 179 181 177 168 161 161 156 162 177 189 143 123 127 72 74 112 145 341